Flag for U.S.A. Weather past 2 weeks in Greeley, Colorado, U.S.A.

Now
75 °F

Passing clouds.


Feels Like: 78 °F
Forecast: 57 / 76 °F
Wind: 10 mph from Northeast

Location: Greeley / Weld

Current Time: Aug 27, 2014 at 4:09:39 PM

Latest Report: Aug 27, 2014 at 3:55 PM


Visibility: 10 mi

Pressure: 30.08 "Hg

Humidity: 50%

Dew point: 55 °F

Location of GreeleyLocation

Historic Weather in Greeley — Graph

°F

Greeley temperature yesterday

Maximum temperature yesterday: 81 °F (at 1:35 PM)
Minimum temperature yesterday: 55 °F (at 1:15 AM)
Average temperature yesterday: 67 °F

Past Weeks' High & Low Weather Summary

 TemperatureHumidityPressure
High95 °F (Aug 17, 5:15 PM)83% (Aug 14, 11:55 PM)30.25 "Hg (Aug 14, 11:55 PM)
Low48 °F (Aug 24, 3:55 AM)13% (Aug 17, 5:15 PM)29.85 "Hg (Aug 19, 5:55 PM)
Average69 °F54%30.07 "Hg
* Reported Aug 12 2:35 PM — Aug 27 2:15 PM, Greeley, Weather by CustomWeather, © 2014

Note: Actual official high and low records may vary slightly from our data, if they occured in-between our weather recording intervals... More about our weather records

Advertising

Greeley weather history for previous 24 hours

 ConditionsComfort  
Time TempWeatherWind HumidityBarometerVisibility
2:15 PM
Aug 27
77 °FSunny.8 mph47%30.11 "Hg10 mi
1:55 PM75 °FSunny.3 mph50%30.12 "Hg10 mi
1:35 PM75 °FScattered clouds.6 mph50%30.13 "Hg10 mi
1:15 PM73 °FPartly sunny.6 mph53%30.13 "Hg9 mi
12:55 PM73 °FPassing clouds.6 mph53%30.13 "Hg10 mi
11:55 AM70 °FPartly sunny.3 mph60%30.15 "Hg10 mi
11:35 AM70 °FPartly sunny.6 mph60%30.16 "Hg10 mi
11:15 AM68 °FPartly sunny.3 mph64%30.16 "Hg10 mi
10:35 AM64 °FBroken clouds.3 mph73%30.17 "Hg10 mi
10:15 AM64 °FPartly sunny.No wind68%30.18 "Hg10 mi
8:55 AM63 °FScattered clouds.No wind73%30.17 "Hg10 mi
8:35 AM63 °FScattered clouds.No wind73%30.17 "Hg10 mi
8:15 AM63 °FSunny.5 mph73%30.16 "Hg10 mi
7:55 AM63 °FSunny.5 mph73%30.16 "Hg10 mi
7:35 AM61 °FPassing clouds.No wind72%30.16 "Hg10 mi
7:15 AM61 °FPassing clouds.No wind72%30.15 "Hg10 mi
6:55 AM61 °FPassing clouds.5 mph72%30.14 "Hg10 mi
6:35 AM59 °FPassing clouds.No wind77%30.14 "Hg10 mi
5:55 AM61 °FPassing clouds.No wind72%30.13 "Hg10 mi
5:35 AM61 °FPassing clouds.No wind72%30.13 "Hg10 mi
5:15 AM61 °FOvercast.No wind72%30.13 "Hg10 mi
4:35 AM59 °FPassing clouds.5 mph77%30.14 "Hg10 mi
4:15 AM61 °FPassing clouds.3 mph72%30.14 "Hg8 mi
3:55 AM59 °FOvercast.No wind77%30.14 "Hg10 mi
3:35 AM57 °FPassing clouds.No wind77%30.15 "Hg9 mi
3:15 AM57 °FClear.No wind72%30.16 "Hg10 mi
2:35 AM61 °FPassing clouds.No wind68%30.17 "Hg10 mi
2:15 AM61 °FClear.No wind72%30.16 "Hg10 mi
1:55 AM61 °FClear.5 mph72%30.16 "Hg10 mi
1:35 AM63 °FClear.3 mph68%30.17 "Hg10 mi
1:15 AM63 °FPassing clouds.5 mph73%30.18 "Hg10 mi
12:55 AM63 °FPassing clouds.No wind73%30.18 "Hg10 mi
12:35 AM63 °FPassing clouds.3 mph73%30.18 "Hg10 mi
12:15 AM63 °FPassing clouds.3 mph73%30.18 "Hg10 mi
11:55 PM
Aug 26
63 °FOvercast.5 mph73%30.18 "Hg10 mi
11:35 PM63 °FPassing clouds.6 mph73%30.19 "Hg10 mi
11:15 PM64 °FClear.5 mph64%30.18 "Hg10 mi
10:55 PM63 °FClear.3 mph68%30.19 "Hg10 mi
10:35 PM64 °FClear.5 mph64%30.19 "Hg10 mi
10:15 PM66 °FClear.6 mph60%30.19 "Hg10 mi
9:55 PM66 °FClear.6 mph64%30.19 "Hg10 mi
9:35 PM66 °FClear.6 mph68%30.19 "Hg10 mi
9:15 PM66 °FClear.7 mph68%30.19 "Hg10 mi
8:55 PM70 °FPassing clouds.5 mph60%30.19 "Hg10 mi
8:35 PM70 °FOvercast.9 mph60%30.18 "Hg10 mi
8:15 PM70 °FOvercast.6 mph60%30.17 "Hg10 mi
7:55 PM70 °FPartly sunny.6 mph60%30.17 "Hg10 mi
7:35 PM70 °FScattered clouds.7 mph60%30.17 "Hg10 mi
7:15 PM72 °FScattered clouds.6 mph57%30.16 "Hg10 mi
6:55 PM72 °FScattered clouds.3 mph57%30.16 "Hg10 mi
6:35 PM73 °FPartly sunny.6 mph53%30.17 "Hg10 mi
6:15 PM73 °FPartly sunny.6 mph50%30.16 "Hg10 mi
5:55 PM72 °FScattered clouds.No wind50%30.17 "Hg10 mi
5:35 PM72 °FScattered clouds.7 mph53%30.17 "Hg10 mi
5:15 PM73 °FThundershowers. Sunny.10 mph53%30.17 "Hg10 mi
4:55 PM73 °FScattered clouds.14 mph57%30.18 "Hg10 mi
4:35 PM75 °FPartly sunny.14 mph54%30.18 "Hg10 mi
4:15 PM79 °FScattered clouds.7 mph48%30.17 "Hg10 mi
Weather by CustomWeather, © 2014

See weather overviewHow to use our weather pages